Time,TemperatureF,DewpointF,PressureIn,WindDirection,WindDirectionDegrees,WindSpeedMPH,WindSpeedGustMPH,Humidity,HourlyPrecipIn,Conditions,Clouds,dailyrainin,SolarRadiationWatts/m^2,SoftwareType,DateUTC
2013-04-25 00:00:00,36.0,20.0,-100.00,SE,138,2.0,5.0,52,-99.99,,,-99.99,0.000000,,2013-04-25 06:00:00,
2013-04-25 01:00:00,35.0,-99.9,-100.00,North,-999,-999.0,-999.0,-999,-99.99,,,-99.99,,,2013-04-25 07:00:00,
2013-04-25 01:53:00,35.0,-99.9,-100.00,North,-999,-999.0,-999.0,-999,-99.99,,,-99.99,,,2013-04-25 07:53:00,
2013-04-25 02:00:00,34.0,-99.9,-100.00,North,-999,-999.0,-999.0,-999,-99.99,,,-99.99,,,2013-04-25 08:00:00,
2013-04-25 03:00:00,33.0,21.0,-100.00,SSE,165,3.0,4.0,61,-99.99,,,-99.99,0.000000,,2013-04-25 09:00:00,
2013-04-25 04:00:00,33.0,21.0,-100.00,SSE,163,3.0,4.0,61,-99.99,,,-99.99,0.000000,,2013-04-25 10:00:00,
2013-04-25 05:00:00,36.0,23.0,-100.00,SSE,160,3.0,4.0,60,-99.99,,,-99.99,0.000000,,2013-04-25 11:00:00,
2013-04-25 06:00:00,39.0,24.0,-100.00,SSE,163,2.0,4.0,53,-99.99,,,-99.99,0.000000,,2013-04-25 12:00:00,
2013-04-25 07:00:00,41.0,23.0,-100.00,SSE,160,1.0,3.0,48,-99.99,,,-99.99,4.300000,,2013-04-25 13:00:00,
2013-04-25 09:00:00,43.0,23.0,-100.00,ENE,63,0.0,1.0,45,-99.99,,,-99.99,96.500000,,2013-04-25 15:00:00,
2013-04-25 10:00:00,42.0,23.0,-100.00,NNW,344,1.0,2.0,45,-99.99,,,-99.99,189.600006,,2013-04-25 16:00:00,
2013-04-25 11:00:00,46.0,25.0,-100.00,NNE,15,1.0,7.0,43,-99.99,,,0.00,194.800003,,2013-04-25 17:00:00,
2013-04-25 12:00:00,45.0,24.0,-100.00,North,350,1.0,5.0,42,-99.99,,,0.00,193.800003,,2013-04-25 18:00:00,
2013-04-25 13:00:00,46.0,24.0,-100.00,North,4,1.0,4.0,41,-99.99,,,0.00,273.200012,,2013-04-25 19:00:00,
2013-04-25 13:42:00,46.0,24.0,-100.00,North,4,1.0,4.0,41,-99.99,,,0.00,273.200012,,2013-04-25 19:42:00,
2013-04-25 13:52:00,46.0,24.0,-100.00,North,4,1.0,4.0,41,-99.99,,,0.00,273.200012,,2013-04-25 19:52:00,
2013-04-25 14:00:00,51.0,27.0,-100.00,NW,318,2.0,9.0,39,-99.99,,,0.00,513.700012,,2013-04-25 20:00:00,
2013-04-25 14:43:00,51.0,27.0,-100.00,NW,318,2.0,9.0,39,-99.99,,,0.00,513.700012,,2013-04-25 20:43:00,
2013-04-25 14:52:00,51.0,27.0,-100.00,NW,318,2.0,9.0,39,-99.99,,,0.00,513.700012,,2013-04-25 20:52:00,
2013-04-25 15:00:00,51.0,27.0,-100.00,NNE,33,1.0,5.0,39,-99.99,,,0.00,284.500000,,2013-04-25 21:00:00,
2013-04-25 16:00:00,54.0,26.0,-100.00,NE,40,2.0,7.0,33,-99.99,,,0.00,621.500000,,2013-04-25 22:00:00,
2013-04-25 16:42:00,54.0,26.0,-100.00,NE,40,2.0,7.0,33,-99.99,,,0.00,621.500000,,2013-04-25 22:42:00,
2013-04-25 16:53:00,54.0,26.0,-100.00,NE,40,2.0,7.0,33,-99.99,,,0.00,621.500000,,2013-04-25 22:53:00,
2013-04-25 17:00:00,50.0,23.0,-100.00,ENE,66,2.0,7.0,34,-99.99,,,0.00,156.600006,,2013-04-25 23:00:00,
2013-04-25 18:00:00,45.0,25.0,-100.00,NE,50,2.0,8.0,45,-99.99,,,0.00,129.399994,,2013-04-26 00:00:00,
2013-04-25 18:42:00,45.0,25.0,-100.00,NE,50,2.0,8.0,45,-99.99,,,0.00,129.399994,,2013-04-26 00:42:00,
2013-04-25 18:52:00,45.0,25.0,-100.00,NE,50,2.0,8.0,45,-99.99,,,0.00,129.399994,,2013-04-26 00:52:00,
2013-04-25 19:00:00,44.0,33.0,-100.00,East,84,2.0,8.0,66,-99.99,,,0.00,47.299999,,2013-04-26 01:00:00,
2013-04-25 20:00:00,42.0,31.0,-100.00,East,86,2.0,7.0,63,-99.99,,,0.00,7.000000,,2013-04-26 02:00:00,
2013-04-25 21:00:00,37.0,31.0,-100.00,NNE,19,1.0,8.0,77,-99.99,,,0.00,0.000000,,2013-04-26 03:00:00,
2013-04-25 22:00:00,36.0,35.0,-100.00,NE,43,0.0,3.0,96,-99.99,,,0.00,0.000000,,2013-04-26 04:00:00,
2013-04-25 23:00:00,37.0,36.0,-100.00,SE,134,0.0,5.0,97,-99.99,,,0.00,0.000000,,2013-04-26 05:00:00,
2013-04-25 23:42:00,37.0,36.0,-100.00,SE,134,0.0,5.0,97,-99.99,,,0.00,0.000000,,2013-04-26 05:42:00,
2013-04-25 23:52:00,37.0,36.0,-100.00,SE,134,0.0,5.0,97,-99.99,,,0.00,0.000000,,2013-04-26 05:52:00,